Location: Freistadt
(48.5112°N, 14.5013°E)
Time: 13:22:59
(UTC+02:00)

CUBESAT XI-V - Visible Passes

Search period start: 28 March 2023 00:00
Search period end: 07 April 2023 00:00
Orbit: 665 x 687 km, 98.1° (Epoch: 27 March)

Date Brightness Start Highest point End Pass type
(mag) Time Alt. Az. Time Alt. Az. Time Alt. Az.
28 Mar ? 01:17:34 13° NNE 01:17:34 13° NNE 01:18:38 10° NNE visible
28 Mar ? 02:55:54 18° NNW 02:55:54 18° NNW 02:57:05 10° NNW visible
29 Mar ? 01:52:24 19° NNE 01:52:24 19° NNE 01:54:03 10° N visible
29 Mar ? 03:30:45 14° NW 03:30:45 14° NW 03:31:26 10° NNW visible
30 Mar ? 02:27:15 22° N 02:27:15 22° N 02:29:00 10° N visible
31 Mar ? 01:23:45 16° NE 01:23:45 16° NE 01:25:23 10° NNE visible
31 Mar ? 03:02:04 21° NNW 03:02:04 21° NNW 03:03:36 10° NNW visible
01 Apr ? 01:58:34 23° NNE 01:58:34 23° NNE 02:00:39 10° N visible
01 Apr ? 03:36:54 15° NW 03:36:54 15° NW 03:37:50 10° NNW visible
02 Apr ? 00:55:04 11° NE 00:55:04 11° NE 00:55:48 10° NE visible
02 Apr ? 02:33:23 27° N 02:33:23 27° N 02:35:30 10° N visible
03 Apr ? 01:29:53 19° NE 01:29:53 19° NE 01:32:02 10° NNE visible
03 Apr ? 03:08:12 23° NNW 03:08:12 23° NNW 03:10:03 10° NNW visible
04 Apr ? 02:04:41 27° NNE 02:04:41 27° NNE 02:07:11 10° N visible
04 Apr ? 03:43:00 16° NW 03:43:00 16° NW 03:44:10 10° NW visible
05 Apr ? 01:01:09 12° NE 01:01:09 12° NE 01:02:48 10° NNE visible
05 Apr ? 02:39:28 32° N 02:39:28 32° N 02:41:58 10° NNW visible
06 Apr ? 01:35:57 22° NE 01:35:57 22° NE 01:38:37 10° N visible
06 Apr ? 03:14:16 26° NW 03:14:16 26° NW 03:16:25 10° NNW visible
